Temperature
16 17 17 17 18 18 18 19 19 19 19 20 20 20 20 20 20 20 19 19 19 19 18 18 18 18 18 18 18 18 18 18 18 17 17 17 17 17 17 17 17 17 17
15 16 16 17 17 17 17 18 18 19 19 19 19 19 20 20 19 19 19 19 18 18 18 18 18 18 18 18 18 18 18 17 17 17 17 17 17 17 17 17 17 17 17
13 14 15 16 16 16 16 17 17 18 18 19 19 19 19 19 19 19 19 18 18 18 18 18 18 18 18 18 18 18 17 17 17 17 17 17 17 17 17 17 17 17 17
13 13 14 15 15 15 15 16 16 17 17 18 18 18 19 19 19 19 18 18 18 18 18 17 17 17 17 17 17 17 17 17 17 17 16 16 16 16 17 17 17 17 17
12 13 13 13 14 14 15 15 15 16 16 17 17 17 18 18 18 18 18 18 18 17 17 17 17 17 17 17 17 17 17 17 17 16 16 16 16 16 16 16 17 17 17
12 12 13 13 14 14 14 14 15 15 16 16 16 17 17 17 17 17 17 17 17 17 16 16 16 16 16 16 16 16 16 16 16 16 16 16 16 16 16 16 16 16 16
12 12 12 13 13 13 14 14 14 15 15 15 15 16 16 16 16 16 16 16 16 16 16 16 16 16 16 15 16 16 16 16 16 16 16 16 16 15 15 15 16 16 16
12 12 12 12 13 13 13 13 14 14 14 14 15 15 15 15 15 15 15 15 15 15 15 15 15 15 15 15 15 15 15 15 15 15 15 15 15 15 15 15 15 15 15
12 12 12 12 12 12 13 13 13 13 14 14 14 14 14 14 15 15 15 15 15 15 15 15 15 14 14 15 15 15 15 15 15 15 15 15 15 15 15 15 15 15 15
12 12 12 12 12 12 12 13 13 13 13 13 14 14 14 14 14 14 14 14 14 14 14 14 14 14 14 15 15 15 15 15 15 15 15 15 15 15 15 15 15 14 14
12 12 12 12 12 12 12 12 13 13 13 13 13 13 13 13 14 14 14 14 14 14 14 14 14 14 14 15 15 15 15 15 15 15 15 15 15 15 15 14 14 14 14
13 12 12 12 12 12 12 12 12 12 13 13 13 13 13 13 14 14 14 14 14 14 14 14 14 14 15 15 15 15 15 15 15 15 15 15 14 14 14 14 14 14 14
13 13 13 13 12 12 12 12 12 12 12 13 13 13 13 13 14 14 14 14 14 14 14 14 14 14 14 14 15 15 15 15 15 15 15 15 14 14 14 14 14 14 14
14 13 13 13 13 13 12 12 12 12 12 13 13 13 13 13 13 13 14 14 14 14 14 14 14 14 14 14 14 15 15 15 15 15 14 14 14 14 14 14 14 14 14
14 14 14 13 13 13 12 12 12 12 12 12 13 12 12 13 13 13 13 13 14 14 14 14 14 14 14 14 14 14 14 14 14 14 14 14 14 14 14 14 14 14 14
14 14 14 13 13 13 13 12 12 12 12 12 12 12 12 12 12 12 12 13 13 13 13 13 14 14 14 14 14 14 14 14 14 14 14 14 14 14 14 14 14 14 14
14 14 14 14 13 13 13 12 12 12 12 12 12 12 12 12 12 12 12 12 12 12 12 13 13 13 13 13 14 14 14 14 14 14 14 14 14 14 14 14 14 14 14
14 14 14 14 13 13 13 12 12 12 12 12 12 12 12 12 11 12 12 11 11 12 12 12 12 12 13 13 13 13 14 14 14 14 14 14 14 14 14 14 14 14 14
14 14 14 14 14 13 13 13 12 12 12 12 12 11 11 11 11 11 11 11 11 11 11 11 12 12 12 12 13 13 13 13 13 13 13 14 14 14 14 14 14 14 13
14 14 14 14 14 13 13 13 13 12 12 12 12 11 11 11 11 11 10 10 11 11 11 11 11 12 12 12 12 12 13 13 13 13 13 13 13 13 13 13 13 13 13
14 14 14 14 14 14 14 13 13 12 12 12 12 11 11 11 11 11 10 10 10 10 10 11 11 11 11 12 12 12 12 12 12 12 12 12 13 13 13 13 13 13 13
15 15 15 14 14 14 14 13 13 13 12 12 12 11 11 11 11 11 11 10 10 11 10 11 11 11 11 11 11 11 12 12 12 12 12 12 12 12 12 13 13 13 12
15 15 15 15 14 14 14 14 13 13 13 12 12 11 11 11 11 11 11 10 10 11 10 10 10 10 10 10 11 11 11 11 11 11 11 11 11 12 12 12 12 12 12
15 15 15 15 15 14 14 14 14 13 13 12 12 11 11 11 11 11 11 10 10 10 10 10 10 10 10 10 10 10 11 11 11 11 11 11 11 11 11 11 11 11 11
15 15 15 15 15 14 14 14 14 13 13 12 12 11 11 11 11 10 10 10 10 10 10 10 10 10 10 10 10 10 10 10 10 10 10 10 10 10 10 10 10 10 10
15 15 15 15 15 14 14 14 14 13 13 12 12 11 11 11 11 10 10 10 10 10 10 10 9 9 9 9 9 10 10 10 10 10 10 10 10 10 10 10 10 10 10
Wind_Speed
13 14 15 15 13 12 11 11 11 10 7 3 2 4 5 6 6 6 6 8 8 9 7 6 6 5 5 5 5 4 4 2 2 3 2 3 2 2 3 4 5 7 11
16 17 15 15 15 13 12 11 10 10 8 5 3 3 3 2 3 3 5 7 7 8 7 7 6 6 6 5 4 4 3 2 3 4 2 1 4 3 2 3 5 7 8
16 16 16 14 13 13 12 11 10 10 9 8 4 2 1 2 2 3 4 5 7 7 6 6 6 6 6 6 6 5 6 4 2 3 4 4 4 3 3 2 3 5 6
16 15 15 15 13 12 11 10 10 10 9 7 4 2 3 4 5 5 4 4 4 5 6 5 6 6 5 5 6 5 4 5 3 2 2 3 4 3 2 3 2 3 5
16 15 14 13 12 11 11 10 10 10 9 8 5 2 2 3 3 4 6 5 4 4 5 5 5 5 5 5 4 4 4 4 4 4 3 3 2 2 3 2 3 2 3
15 14 13 12 11 11 11 10 10 10 10 9 7 4 1 2 5 5 6 5 3 3 4 5 5 5 5 5 5 4 5 5 4 4 4 4 3 4 4 4 4 3 3
13 13 13 13 12 13 12 10 10 10 10 10 8 7 3 2 3 3 4 4 3 2 2 3 3 4 4 4 4 4 4 4 5 5 5 5 5 4 4 4 3 3 3
13 12 12 11 11 11 12 11 10 9 9 9 8 8 6 3 3 3 3 3 2 2 2 2 2 2 3 3 3 3 4 4 5 6 5 4 5 5 4 4 4 2 2
14 13 12 10 10 10 10 10 10 9 9 9 8 8 7 6 5 4 3 3 2 2 2 2 2 2 2 3 3 3 4 4 4 4 5 4 3 4 4 4 4 5 3
13 13 12 11 10 10 9 9 9 9 8 9 8 8 8 7 6 5 4 3 1 1 2 1 2 2 3 3 4 4 4 4 4 4 4 3 3 3 4 4 4 4 5
11 10 10 10 10 10 9 9 9 9 9 9 8 8 8 8 7 6 5 4 2 2 1 0 1 1 2 2 2 3 4 4 4 4 4 4 3 3 3 3 3 3 4
9 8 8 9 9 9 9 10 9 9 9 8 8 8 8 8 8 7 6 6 5 4 3 2 2 2 2 1 1 1 3 3 4 4 4 3 3 3 2 2 3 3 3
8 7 7 7 8 8 8 8 9 9 9 8 8 9 9 9 9 9 8 7 6 5 5 5 4 4 3 2 2 2 2 2 1 2 4 3 4 3 2 2 2 2 2
7 8 7 7 7 6 6 7 8 8 8 8 9 10 10 9 9 9 9 9 7 7 7 6 5 4 4 4 3 3 3 2 2 1 3 3 5 4 4 3 2 2 2
8 8 7 7 7 7 7 7 7 8 8 9 10 10 9 9 9 10 9 9 9 8 7 7 6 5 5 5 4 3 3 3 3 2 1 2 4 5 4 3 3 3 2
7 8 8 8 7 6 5 6 7 7 7 8 9 8 9 9 10 9 9 9 9 8 8 8 8 8 7 8 7 3 2 2 3 2 1 1 2 3 4 5 5 5 4
6 7 7 6 4 4 4 5 5 5 7 7 8 8 8 8 8 8 9 8 7 7 8 7 7 6 8 10 9 6 3 3 3 2 2 2 3 3 3 3 4 3 3
6 7 6 5 3 3 3 4 5 6 6 6 7 7 7 7 7 8 8 7 6 6 6 7 7 7 9 13 11 8 5 4 4 3 3 3 3 2 3 4 3 2 2
4 4 4 2 2 2 2 4 5 5 6 6 6 6 6 7 8 8 7 6 6 7 6 6 7 8 9 14 12 8 5 5 5 4 4 4 3 3 5 5 5 3 2
4 4 4 3 3 2 1 3 3 4 4 4 4 4 5 6 7 7 7 6 6 6 7 8 8 8 9 14 13 9 4 5 5 5 5 6 5 6 6 5 5 4 1
4 4 5 3 3 2 1 2 2 2 1 3 4 5 5 5 6 7 6 6 7 7 7 8 8 9 10 12 15 11 5 4 5 5 4 4 7 8 8 6 4 3 3
5 5 4 5 4 2 1 0 2 1 2 4 5 5 6 6 6 7 7 7 7 7 7 7 8 8 8 11 12 13 10 7 6 5 3 4 9 10 10 7 7 9 7
4 4 4 5 5 3 1 2 3 0 4 5 4 4 5 6 6 7 7 6 7 6 6 7 7 7 7 9 15 14 13 11 7 6 8 10 11 10 9 12 12 9 6
4 4 4 5 5 5 3 3 2 3 6 6 4 3 4 5 6 6 5 6 6 6 6 6 6 6 7 7 7 7 7 8 8 7 9 12 13 11 10 9 8 6 5
3 3 4 5 6 5 3 2 1 4 5 5 4 3 3 3 4 4 4 4 4 4 4 3 4 5 6 7 9 6 6 5 5 5 6 7 7 7 7 6 6 6 6
2 3 5 5 5 4 2 2 1 4 5 4 4 3 3 2 2 3 3 5 4 7 7 6 4 4 6 8 11 13 13 12 10 8 6 7 6 7 6 6 6 6 6
Wind_Direction
8 11 10 9 9 10 8 4 358 349 344 329 265 214 201 192 189 187 180 181 176 173 167 166 161 152 154 161 152 135 126 122 125 97 43 340 313 249 214 190 182 194 199
4 4 5 4 1 359 358 358 352 343 335 319 288 239 204 185 183 177 165 169 169 169 176 166 163 160 152 153 153 143 137 142 141 132 117 333 325 305 260 201 192 197 196
358 355 355 354 354 354 352 350 343 338 331 323 315 319 123 130 149 167 176 179 166 166 167 165 160 166 164 168 170 161 154 161 177 161 150 165 223 279 308 258 211 193 196
353 351 349 349 349 346 344 344 341 338 335 333 334 303 221 205 195 179 171 167 159 153 158 167 165 169 171 177 182 173 166 155 171 189 195 177 162 174 278 316 293 218 203
347 346 346 345 344 345 344 343 343 345 342 341 333 310 248 214 174 155 156 159 154 151 159 163 166 171 173 181 181 171 172 169 174 181 182 185 183 166 174 253 294 296 246
342 341 344 346 347 347 347 347 347 348 349 351 351 344 287 168 158 165 167 165 152 151 171 168 173 172 170 176 182 188 190 192 190 193 187 176 175 189 185 209 233 251 265
342 344 348 350 352 351 350 349 350 352 355 3 6 4 16 95 133 146 158 150 148 154 183 163 163 165 171 184 184 192 204 201 201 206 207 202 201 176 172 186 209 233 270
347 348 349 350 351 351 351 353 355 355 1 9 11 17 27 52 72 89 111 127 144 160 160 144 140 162 184 196 195 198 210 209 216 222 214 204 204 187 176 174 170 194 264
351 351 352 354 351 351 353 357 3 5 6 9 13 22 25 37 55 67 79 95 113 143 146 152 158 194 201 204 206 214 214 203 208 208 202 196 194 184 184 177 173 169 199
350 355 355 355 356 357 359 3 9 10 8 12 20 30 28 34 42 51 48 47 56 82 126 163 202 224 219 204 198 204 207 191 192 187 180 180 184 183 179 181 181 173 176
338 346 350 353 359 4 6 10 9 14 17 17 20 27 28 30 37 40 32 28 32 59 92 165 219 233 224 211 187 193 189 176 175 175 173 178 171 166 172 170 165 171 169
330 337 341 348 357 3 9 15 16 20 17 15 21 25 25 28 31 27 24 25 32 35 37 37 48 47 49 57 111 177 161 159 163 162 157 170 158 157 168 164 173 180 180
331 339 341 342 349 356 5 13 15 19 19 19 21 26 25 25 25 22 22 24 30 33 36 46 55 54 53 55 62 93 100 101 132 154 160 166 154 163 165 165 176 182 174
342 346 348 349 351 358 8 14 16 17 23 26 28 31 27 24 24 25 27 28 35 40 41 51 57 55 50 44 37 54 72 63 60 118 165 170 170 170 162 154 159 147 128
357 353 355 356 0 11 16 20 19 18 23 31 33 30 26 28 29 30 31 34 39 43 42 51 49 48 52 42 39 42 64 72 74 72 109 158 168 168 160 152 147 134 123
354 353 357 6 9 16 20 25 24 20 28 36 33 28 30 33 31 27 29 34 35 36 46 49 48 45 41 36 40 45 62 80 97 105 105 126 126 129 126 134 140 141 137
347 348 350 357 7 17 33 39 27 26 34 36 30 26 29 31 26 27 31 30 28 35 40 38 39 38 26 29 34 43 66 72 84 107 125 118 93 93 101 110 110 96 115
345 344 344 352 2 22 37 45 38 36 38 35 29 26 28 27 21 24 25 22 22 30 35 35 30 28 24 29 34 46 59 71 75 84 101 104 90 93 131 123 109 90 63
330 328 336 345 13 31 50 59 40 34 39 35 30 28 31 29 25 23 16 15 26 34 37 36 33 30 19 26 34 51 63 72 66 67 76 87 86 92 124 120 115 91 42
335 338 349 7 10 3 72 68 40 35 36 35 35 35 38 37 30 22 19 21 32 38 40 40 33 29 23 24 33 47 65 72 67 60 55 58 73 85 103 112 120 117 85
334 344 357 354 310 296 105 67 16 2 22 59 51 43 38 42 36 31 28 29 36 41 41 39 31 28 24 22 28 39 60 76 76 66 50 42 65 77 86 96 105 124 124
332 342 350 337 314 293 146 126 298 290 105 88 69 52 42 43 43 41 34 30 33 39 35 34 29 23 20 21 26 40 58 74 81 70 49 54 72 73 71 73 79 89 92
326 332 341 338 328 311 249 244 281 149 121 110 95 72 58 47 42 46 40 33 30 37 35 35 31 19 15 16 26 37 50 59 69 67 66 69 69 68 63 61 67 69 72
324 336 349 348 333 314 292 264 287 119 125 127 127 105 83 62 48 44 42 45 36 35 35 34 29 18 16 15 13 22 38 50 60 62 62 64 63 61 55 51 50 52 62
320 336 344 332 322 316 310 309 118 119 126 135 142 129 113 99 74 58 43 42 30 26 39 30 24 25 20 7 25 43 42 48 67 71 59 54 53 54 49 46 46 46 50
322 339 340 333 324 328 318 333 94 131 138 142 152 154 144 132 116 100 54 27 32 33 41 42 41 21 26 36 52 54 55 57 72 74 66 60 57 58 53 51 45 42 43
Height
1540 1536 1533 1530 1528 1525 1523 1521 1520 1519 1518 1518 1518 1519 1519 1520 1522 1523 1525 1528 1530 1532 1534 1535 1537 1539 1540 1542 1544 1546 1547 1548 1550 1552 1552 1553 1554 1554 1555 1555 1555 1556 1556
1538 1535 1532 1529 1526 1524 1522 1519 1517 1516 1515 1514 1514 1514 1515 1516 1517 1519 1521 1522 1524 1527 1530 1532 1533 1535 1537 1539 1540 1542 1544 1545 1547 1548 1549 1550 1552 1551 1552 1552 1553 1554 1554
1541 1536 1532 1528 1525 1522 1520 1518 1515 1513 1512 1511 1510 1510 1510 1512 1513 1515 1516 1518 1520 1522 1525 1527 1529 1531 1533 1534 1536 1538 1540 1541 1543 1545 1546 1547 1547 1548 1549 1549 1550 1551 1552
1542 1537 1532 1528 1525 1522 1519 1516 1513 1511 1509 1507 1506 1506 1505 1506 1508 1510 1512 1513 1515 1518 1520 1523 1524 1526 1528 1531 1532 1534 1535 1537 1538 1540 1542 1544 1545 1545 1545 1546 1547 1548 1549
1544 1538 1533 1529 1524 1521 1518 1514 1512 1509 1506 1504 1503 1502 1502 1502 1504 1506 1507 1509 1512 1514 1516 1517 1520 1521 1524 1526 1528 1530 1531 1533 1534 1535 1537 1539 1540 1542 1543 1543 1544 1545 1546
1545 1539 1534 1528 1524 1520 1517 1514 1511 1508 1505 1502 1500 1499 1498 1499 1500 1502 1504 1506 1508 1510 1511 1512 1515 1517 1519 1521 1524 1526 1527 1529 1530 1531 1532 1534 1536 1537 1538 1540 1541 1542 1543
1546 1539 1534 1528 1524 1521 1517 1514 1510 1507 1504 1502 1499 1497 1497 1497 1498 1499 1501 1502 1504 1506 1508 1509 1511 1512 1514 1517 1520 1522 1523 1525 1526 1527 1529 1530 1532 1533 1535 1536 1537 1538 1539
1546 1540 1535 1530 1526 1522 1518 1515 1511 1508 1505 1502 1500 1498 1497 1497 1497 1498 1500 1501 1503 1505 1506 1507 1508 1510 1511 1514 1517 1518 1520 1521 1522 1524 1525 1527 1528 1529 1531 1532 1534 1534 1535
1547 1542 1537 1532 1528 1524 1520 1516 1513 1510 1507 1504 1502 1500 1498 1498 1498 1498 1500 1501 1502 1503 1505 1506 1507 1509 1510 1512 1514 1515 1517 1518 1520 1521 1522 1523 1524 1526 1527 1529 1530 1532 1532
1549 1544 1539 1534 1530 1526 1522 1518 1515 1512 1509 1507 1504 1502 1501 1500 1500 1500 1501 1501 1502 1503 1504 1505 1506 1508 1510 1511 1512 1514 1515 1516 1518 1519 1520 1521 1522 1523 1524 1525 1527 1528 1529
1551 1547 1542 1538 1533 1529 1525 1521 1517 1514 1511 1509 1507 1505 1504 1503 1503 1502 1503 1503 1503 1504 1505 1505 1507 1508 1510 1511 1512 1513 1514 1515 1517 1518 1519 1519 1520 1521 1522 1523 1524 1524 1525
1554 1550 1545 1541 1536 1532 1528 1524 1521 1517 1515 1513 1511 1509 1507 1506 1506 1505 1505 1505 1505 1505 1506 1507 1508 1509 1510 1511 1512 1513 1514 1515 1516 1517 1518 1518 1519 1520 1520 1521 1521 1522 1522
1556 1552 1548 1544 1540 1536 1532 1528 1524 1521 1519 1516 1514 1512 1510 1509 1508 1507 1507 1507 1507 1507 1507 1508 1509 1510 1510 1511 1512 1513 1513 1514 1515 1516 1517 1518 1518 1519 1519 1519 1520 1520 1520
1558 1554 1550 1547 1543 1539 1536 1532 1528 1525 1522 1520 1517 1515 1513 1511 1510 1510 1509 1508 1508 1508 1509 1509 1510 1510 1511 1512 1512 1513 1513 1514 1515 1516 1517 1517 1518 1518 1519 1519 1519 1519 1519
1559 1556 1553 1549 1546 1542 1539 1535 1532 1529 1526 1523 1520 1518 1516 1515 1513 1512 1511 1510 1510 1510 1510 1510 1510 1510 1511 1512 1512 1513 1513 1514 1515 1516 1516 1517 1517 1518 1518 1518 1518 1518 1519
1561 1558 1555 1552 1549 1546 1542 1539 1536 1533 1530 1526 1523 1521 1519 1518 1516 1514 1513 1512 1512 1511 1511 1510 1510 1510 1510 1511 1511 1512 1513 1514 1514 1515 1516 1517 1518 1518 1518 1518 1519 1519 1519
1563 1560 1557 1554 1551 1548 1545 1542 1539 1536 1533 1529 1527 1524 1522 1520 1518 1517 1516 1514 1513 1512 1512 1511 1511 1510 1510 1510 1510 1511 1512 1513 1513 1515 1516 1517 1517 1518 1518 1519 1519 1519 1519
1564 1561 1559 1556 1554 1551 1548 1545 1542 1539 1536 1533 1530 1527 1525 1523 1521 1519 1518 1516 1515 1514 1513 1512 1511 1510 1510 1510 1510 1510 1511 1512 1513 1514 1515 1516 1517 1518 1518 1519 1519 1519 1519
1565 1563 1560 1558 1555 1553 1550 1548 1545 1542 1539 1536 1533 1531 1528 1526 1524 1522 1520 1519 1517 1516 1515 1514 1512 1511 1510 1510 1510 1510 1510 1511 1512 1513 1514 1515 1516 1517 1517 1518 1518 1519 1519
1565 1563 1561 1559 1557 1554 1552 1550 1547 1544 1542 1539 1537 1534 1531 1529 1526 1524 1523 1521 1520 1518 1517 1515 1514 1513 1512 1511 1510 1510 1511 1511 1512 1513 1513 1514 1515 1516 1516 1517 1518 1518 1519
1566 1564 1562 1560 1558 1556 1554 1552 1549 1547 1545 1542 1540 1537 1534 1531 1529 1527 1525 1524 1522 1521 1519 1517 1516 1514 1513 1512 1512 1511 1511 1512 1512 1513 1513 1514 1514 1515 1516 1517 1517 1518 1518
1566 1565 1563 1561 1559 1557 1555 1553 1551 1549 1547 1545 1542 1540 1537 1534 1532 1530 1528 1527 1525 1523 1522 1520 1518 1517 1515 1514 1514 1513 1513 1513 1513 1513 1514 1514 1515 1515 1516 1516 1517 1517 1518
1567 1565 1563 1561 1559 1558 1556 1554 1552 1550 1549 1547 1545 1542 1540 1538 1535 1533 1531 1529 1528 1526 1524 1523 1521 1519 1518 1517 1516 1515 1515 1515 1514 1514 1515 1515 1516 1516 1516 1517 1517 1518 1518
1567 1565 1563 1562 1560 1558 1557 1555 1553 1552 1550 1548 1547 1545 1543 1541 1539 1537 1535 1533 1531 1529 1528 1526 1524 1523 1521 1520 1519 1518 1517 1517 1517 1516 1517 1517 1517 1517 1517 1518 1518 1518 1518
1566 1565 1563 1562 1560 1559 1557 1556 1554 1553 1551 1550 1548 1547 1545 1543 1542 1540 1538 1536 1534 1533 1531 1529 1527 1526 1524 1523 1522 1521 1520 1519 1519 1519 1519 1519 1519 1519 1519 1519 1519 1519 1519
1566 1564 1563 1561 1560 1559 1557 1556 1555 1554 1552 1551 1549 1548 1547 1545 1544 1543 1541 1540 1538 1536 1534 1533 1530 1529 1527 1526 1525 1523 1522 1522 1521 1521 1520 1520 1520 1520 1520 1520 1520 1520 1520